Skip Page Navigation
NASA JPL Caltech
NASA Logo - Jet Propulsion Laboratory + View the NASA Portal
+ Center for Near-Earth Object Studies
JPL Home Earth Solar System Stars & Galaxies Technology
JPL Solar System Dynamics
BODIES ORBITS EPHEMERIDES TOOLS PHYSICAL DATA DISCOVERY FAQ SITE MAP
IMPORTANT: The SSD Announcement email list is now available. Major changes are coming in the near future, including possible hostname and/or URL changes. To be notified of such changes, subscribe to this email list.

Please visit this page for more details.


JPL Small-Body Database Browser
Search: [ help ]  
79354 Brundibar (1997 BB)
Classification: Main-belt Asteroid          SPK-ID: 2079354
Ephemeris | Orbit Diagram | Orbital Elements | Mission Design | Physical Parameters | Discovery Circumstances ]

[ hide orbit diagram ]

For accurate long-term ephemerides, please instead use our Horizons system.This orbit viewer was implemented using two-body methods, and hence should not be used for determining accurate long-term trajectories (over several years or decades) or planetary encounter circumstances.


[ revert to old Java-based viewer ]

Orbital Elements at Epoch 2459000.5 (2020-May-31.0) TDB
Reference: JPL 14 (heliocentric ecliptic J2000)
 Element Value Uncertainty (1-sigma)   Units 
e .09913349957261951 4.0596e-08  
a 2.311527554791581 1.1436e-08 au
q 2.082377738926552 9.3298e-08 au
i 5.056731591247283 6.0666e-06 deg
node 309.1178008108838 5.1062e-05 deg
peri 104.989778953163 6.1014e-05 deg
M 295.6947382557173 3.3525e-05 deg
tp 2459229.793133133354
(2021-Jan-15.29313313)
0.00012015 TDB
period 1283.651223693937
3.51
9.5258e-06
2.608e-08
d
yr
n .2804500111518105 2.0812e-09 deg/d
Q 2.54067737065661 1.2569e-08 au
  Orbit Determination Parameters
   # obs. used (total)      490  
   data-arc span      7677 days (21.02 yr)  
   first obs. used      1997-01-16  
   last obs. used      2018-01-23  
   planetary ephem.      DE431  
   SB-pert. ephem.      SB431-N16  
   condition code      0  
   norm. resid. RMS      .57052  
   source      ORB  
   producer      Otto Matic  
   solution date      2018-Feb-05 21:49:37  

Additional Information
 Earth MOID = 1.10062 au 
 Jupiter MOID = 2.73086 au 
 T_jup = 3.572 
[ show covariance matrix ]

Ephemeris | Orbit Diagram | Orbital Elements | Mission Design | Physical Parameters | Discovery Circumstances ]

Physical Parameter Table
Parameter Symbol Value Units Sigma Reference Notes
absolute magnitude H 16.4   n/a MPO436335  

79354 Brundibár           Discovered 1997 Jan. 16 by M. Tichy and J. Ticha at Klet.
Brundibár is a children's opera by Jewish Czech composer Hans Krása and librettist Adolf Hoffmeister, originally performed by the children of Theresienstadt ghetto for Jews in 1943. The name comes from a Czech word for a bumble-bee.
NOTE: some special characters may not display properly (any characters within {} are an attempt to place the proper accent above a character)
Reference: MPC batch dated 2014-05-14Last Updated: 2014-05-15

Alternate Designations
 1997 BB = 1997 CS1 = 1999 TQ193 
Ephemeris | Orbit Diagram | Orbital Elements | Mission Design | Physical Parameters | Discovery Circumstances ]
ABOUT SSD CREDITS/AWARDS PRIVACY/COPYRIGHT GLOSSARY LINKS
FirstGov 2020-Feb-18 17:08 UT
(server date/time)  
NASA Home Page
Site Manager:   Ryan S. Park
Webmaster  Alan B. Chamberlin